Location: Columbus
(29.5618°N, 96.6770°W)
Time: 15:56:04
(UTC-05:00)

Daily predictions for brighter satellites

Satellite Brightness Start Highest point End
(mag) Time Altitude Azimuth Time Altitude Azimuth Time Altitude Azimuth
Cosmos 2360 4.3 20:15:00 10° S 20:20:37 62° ESE 20:26:16 10° NNE
Cosmos 1151 Rocket 3.7 20:16:52 10° SSW 20:21:10 62° W 20:25:27 10° N
Atlas Centaur 2 3.1 20:16:11 10° SW 20:22:12 43° SSE 20:29:31 10° E
Molniya-1 2.0 20:25:46 10° SSW 20:27:21 85° WNW 20:29:00 10° NNE
SL-8 R/B 4.3 20:24:43 10° NW 20:29:20 44° NE 20:33:56 10° ESE
Cosmos 1455 2.3 20:30:02 10° S 20:33:43 51° E 20:37:23 10° NNE
In-Cosmos 22 Rocket 4.3 20:32:50 10° NNW 20:38:08 75° W 20:43:25 10° S
DELTA 2 R/B (1) 4.1 20:39:19 10° NW 20:44:46 50° NNE 20:49:34 13° E
Cosmos 1869 3.8 20:43:04 10° SSE 20:46:42 37° E 20:50:20 10° NNE
CZ-3B DEB 0.8 20:43:33 10° NNW 20:47:22 49° NE 20:48:45 20° ESE
Spot 2 Rocket 3.6 20:43:29 10° SSE 20:48:29 57° ENE 20:53:27 10° N
Lacrosse 5 4.5 20:47:11 10° W 20:49:49 14° WSW 20:52:25 10° SSW
Resurs 01 Rocket 1.6 20:46:04 10° SSE 20:50:28 66° ENE 20:54:53 10° N
OAO 3 Rocket 4.0 20:46:36 10° W 20:51:21 51° N 20:56:10 10° ENE
SJ-6B 3.9 20:47:46 10° S 20:51:29 46° W 20:55:19 10° NNW
FENGYUN 3A 4.0 20:47:55 10° S 20:53:14 66° WSW 20:58:34 10° NNW
Cosmos 1892 2.6 20:53:57 10° N 20:57:45 88° W 21:01:34 10° S
GRACE-1 3.7 20:55:34 10° N 20:58:17 60° E 21:00:31 14° S
GRACE-2 3.8 20:55:58 10° N 20:58:40 60° E 21:00:50 14° S
FALCON 9 R/B 1.8 20:56:30 10° W 20:59:12 31° NNW 21:00:47 14° NE
Cosmos 2297 Rocket 3.8 20:54:40 10° NW 20:59:43 35° WSW 21:04:46 10° SSW
Cosmos 1400 Rocket 3.0 20:56:43 10° NNW 21:00:36 73° W 21:04:31 10° S
H-2A R/B 3.1 20:57:39 10° S 21:01:33 68° W 21:05:25 10° NNW
Meteor 1-29 3.4 21:01:22 10° NNE 21:04:38 38° E 21:06:41 19° SSE
Cosmos 2142 Rocket 4.4 20:59:11 10° S 21:05:12 64° E 21:11:16 10° NNE
Cosmos 2322 Rocket 2.1 21:00:39 10° S 21:06:11 67° ESE 21:11:45 10° NNE
Cosmos 2263 Rocket 3.9 21:04:13 10° NNE 21:07:08 14° ENE 21:08:26 13° ENE
Envisat 3.6 21:05:47 21° SE 21:08:27 36° ENE 21:13:04 10° N
Cosmos 1933 4.4 21:11:30 25° E 21:11:30 25° E 21:14:39 10° NE
Cosmos 1315 Rocket 2.7 21:10:16 10° N 21:14:19 80° E 21:17:08 19° SSE
Cosmos 2360 Rocket 3.0 21:15:49 26° ESE 21:16:43 27° ESE 21:21:24 10° NE
Cosmos 1980 Rocket 4.3 21:12:39 10° SW 21:17:32 30° WNW 21:22:29 10° N
OTV 4 0.3 21:17:07 10° WNW 21:19:58 64° SSW 21:20:12 59° S
CZ-2D R/B 3.9 21:18:16 10° S 21:22:05 56° W 21:25:56 10° NNW
H-2A R/B (2) 4.4 21:19:00 10° WSW 21:23:45 31° S 21:33:12 18° SE
GENESIS II 4.3 21:21:38 10° SSW 21:25:40 82° WNW 21:29:44 10° NNE
USA 234 4.1 21:22:53 22° E 21:26:17 37° NE 21:32:11 10° NNW
SEDSat Delta rocket 3.5 21:21:43 10° WSW 21:27:00 88° NNW 21:30:34 25° ENE
CZ-3 Stage 3 3.9 20:55:35 10° WNW 21:27:11 49° SW 21:31:41 22° SSE
Cosmos 1825 2.5 21:23:38 10° N 21:27:16 43° E 21:27:16 43° E
Cosmos 2026 Rocket 3.9 21:24:50 10° N 21:30:59 63° E 21:34:22 27° SSE
SL-16 R/B 2.5 21:28:16 10° SSW 21:33:53 69° WNW 21:39:32 10° NNE
USA 186 2.6 21:34:07 33° WSW 21:34:30 36° W 21:37:03 10° NNW
GPS 2-04 Rocket1 3.6 21:32:28 10° W 21:35:44 31° SSW 21:36:03 31° SSW
ATLAS CENTAUR R/B 3.3 21:32:50 10° NW 21:36:17 47° SW 21:42:08 18° SSE
GPS 2-17 Rocket1 4.5 21:35:50 10° WSW 21:38:48 22° SSW 21:38:48 22° SSW
Cosmos 1862 4.0 21:37:09 10° N 21:40:18 40° NE 21:40:18 40° NE
ERS-1 Rocket 3.7 21:42:09 35° ENE 21:42:09 35° ENE 21:46:40 10° N
SAR-Lupe-4 3.7 21:42:20 58° SSW 21:42:50 69° WSW 21:46:25 10° NNW
Helios 1B rocket 3.7 21:39:35 10° N 21:43:27 42° WNW 21:47:19 10° SW
Cosmos 1939 Rocket 2.7 21:44:20 72° ESE 21:44:33 75° ENE 21:48:35 10° N
Intercosmos 25 Rocket 3.8 21:43:45 30° SW 21:44:58 48° W 21:48:14 10° N
Skynet4D Del rocket 4.4 21:36:49 10° WSW 21:45:03 72° S 21:48:17 38° ESE
Lacrosse 4 Rocket 2.1 21:41:21 10° N 21:45:08 40° NE 21:45:08 40° NE
ATLAS 5 CENTAUR R/B 4.0 21:42:38 10° N 21:46:54 19° NE 21:47:45 19° ENE
ERBS 3.7 21:43:41 10° NNW 21:46:04 31° NNE 21:46:04 31° NNE
Milstar 3 2.7 21:43:07 10° W 21:50:56 76° S 21:53:09 45° ESE
Cosmos 1862 Rocket 3.6 21:50:04 43° SSW 21:51:29 81° W 21:55:59 10° N
Cosmos 1733 Rocket 3.0 21:47:07 10° N 21:51:22 67° ENE 21:51:22 67° ENE
Sakura Rocket 3.7 21:47:55 10° WSW 21:50:46 40° SSW 21:50:46 40° SSW
SeaSat 1 4.3 21:57:02 18° NE 21:57:02 18° NE 21:59:34 10° NNE
Cosmos 1655 Rocket 3.9 21:51:46 10° N 21:58:11 87° E 22:00:35 41° S
Meteor 1-26 Rocket 4.3 21:58:32 54° E 21:58:32 54° E 22:03:52 10° NNE
Cosmos 1408 3.5 21:58:41 10° NNW 22:01:57 47° WNW 22:01:57 47° WNW
USA 229 DEB 3.5 22:00:22 10° SSW 22:07:06 69° ESE 22:13:55 10° NE
USA 229 3.5 22:00:28 10° SSW 22:07:11 68° ESE 22:14:00 10° NE
Atlas Centaur 2 2.8 22:04:21 10° WSW 22:11:37 84° SSE 22:14:12 49° E
Cosmos 2266 Rocket 4.4 22:12:58 10° N 22:18:13 48° ENE 22:18:13 48° ENE
H-2A R/B 3.9 22:33:27 19° NNE 22:33:27 19° NNE 22:35:11 10° N
DELTA 2 R/B (1) 4.3 22:25:52 10° WNW 22:30:21 44° WSW 22:30:21 44° WSW
OAO 3 Rocket 4.4 22:30:39 10° WNW 22:34:27 41° NNW 22:34:27 41° NNW
SPOT 5 4.3 22:43:25 32° N 22:43:25 32° N 22:45:55 10° N
H-2A R/B 3.8 14:45:25 10° SSW 22:49:23 85° S 22:51:40 61° E
Cosmos 2263 Rocket 3.0 22:45:55 10° NNW 22:50:09 48° WNW 22:50:09 48° WNW
Cosmos 2360 Rocket 3.8 22:57:15 18° WSW 23:00:31 30° WNW 23:05:28 10° N
USA 234 4.0 23:10:15 45° W 23:10:15 45° W 23:15:23 10° NW
ATLAS 5 CENTAUR R/B 3.8 23:25:48 10° NW 23:29:19 36° NW 23:29:19 36° NW
